STARLINK-3068, 49154

Orbit data source: Space-Track

STARLINK-3068, 49154 is a payload satellite owned by SpaceX/Seattle (US) in LEO that was launched on Tue, 14 Sep 2021 UTC via an FALCON 9 launch vehicle from the Air Force Western Test Range (AFWTR). Payload-class satellites include a variety of spacecraft equipped with specific instruments for various scientific and technological missions. These include communications satellites like Starlink; space stations such as the ISS; scientific satellites like the Hubble; Earth observation satellites from companies like Planet Labs, Umbra, and HawkEye 360; GPS; miniature CubeSats for education and research; and military/defense satellites.

Loading next visibility...
Identifier
49154, 2021-082AA
Orbit
LEO
Country
Flag of USUS
Related business
Manufacturer
SpaceX/Seattle
Mission
Operational Commercial Communications
Bus & Motor
STARLINK, Unknown motor
Mass
297 kg wet, ~275 kg dry
Launch date (UTC)
2021-09-14 (5 years ago)
Launch vehicle
FALCON 9
Launch site
Air Force Western Test Range (AFWTR)
Object type
Payload
Rocket body
Debris
Shape & HBR
Box + 1 Pan, 10.1 m
Radar Cross Section
13.562 m², Large (>1 m²)

Expand to show TLE details & history
Last TLE update: 3 days ago

TLE from 3 days ago
0 STARLINK-3068
1 49154U 21082AA  26170.92447246  .00000238  00000-0  28254-4 0  9998
2 49154  69.9998  17.7874 0002718 270.9797  89.1050 14.97522062262830
Epoch: 2026-06-19T22:11Z
TLE epoch observation values (Epoch: 2026-06-19T22:11:14.420Z)
Latitude
-0.00005°
Longitude
136.83083°
Altitude
576.949 km
Speed
7.573 km/s
True Right ascension
01h 11m 08s
True Declination
0° 00' 00"
Sunlit
Object was in daylight at epoch
Visualization orbit readout
Latitude
Unknown
Longitude
Unknown
Altitude
Unknown
Speed
Unknown
Apparent Right ascension
Unknown
Apparent Declination
Unknown
Sunlit
N/A
Visualization observer readout
Local Sidereal Time
21:36:38
Azimuth
Unknown
Elevation
Unknown
Doppler factor
Unknown
Orbital elements
Apogee altitude
574.394 km
Perigee altitude
570.615 km
Semi-major axis
6,950.641 km
Eccentricity
0.00027
Inclination
69.9998°
RAAN
17.7874°
Arg. of periapsis
270.9797°
True anomaly
89.13614°
Mean anomaly
89.105°
Eccentric anomaly
89.12057°
Mean motion
3.74547 °/min
Orbital period
96.12 mins
BSTAR
0.000028254
Loading maneuver chart data...
Computing Atmospheric mass density...

Documentation

Showing up to 5 results
|